Wind_Speed
23 24 24 25 27 26 24 22 22 22 21 22 23 24 26 26 26 25 27 30 32 33 33 33 33 33 33 33 32 32 32 32 32 32 32 31 30 29 28 27 26 25 24 22 21 21 21 23 24 26 28 29 30 30 31 32 32 32 32 33 33 32 32 32 32 31 31 30 30
24 23 24 27 30 29 26 23 22 21 21 21 22 23 25 27 26 25 25 27 30 32 32 32 32 32 32 32 32 32 32 32 32 32 32 32 31 30 29 28 28 26 25 24 23 22 22 22 24 26 27 29 30 31 31 32 32 33 33 34 34 34 34 34 34 33 33 33 32
25 23 24 27 31 31 28 25 23 22 22 21 22 22 24 26 26 25 24 25 27 30 31 31 31 31 31 32 32 32 32 32 32 32 32 32 31 31 30 30 29 28 27 26 25 24 23 23 24 25 26 28 29 30 31 32 33 33 34 34 35 35 35 35 35 35 35 34 34
27 25 25 26 30 32 31 28 24 23 23 23 23 23 23 25 26 25 24 23 24 26 28 30 30 29 30 30 31 32 32 33 33 33 33 32 32 32 31 31 30 29 28 27 27 26 25 24 24 25 26 27 28 29 30 31 32 33 34 35 35 36 36 37 36 36 36 36 36
28 27 26 26 29 32 33 31 27 25 24 23 24 25 25 24 25 26 25 23 22 24 27 28 29 28 28 29 30 31 32 33 33 33 33 33 32 32 32 31 31 30 30 29 28 27 27 26 26 26 26 26 27 28 29 30 32 33 34 35 36 36 37 37 37 37 38 38 38
29 28 27 27 28 31 33 32 30 28 25 24 25 25 26 25 25 26 25 25 24 24 25 27 27 27 27 27 29 30 32 33 33 33 33 32 32 32 32 32 32 32 31 31 30 29 29 28 28 28 28 28 28 28 29 30 31 32 33 35 35 36 37 38 38 38 39 39 39
30 30 29 28 29 31 32 33 31 29 27 25 25 26 27 27 26 26 27 27 25 24 25 25 26 27 27 27 28 29 31 32 33 33 33 32 32 32 32 32 32 32 32 32 32 31 31 31 31 31 30 30 30 30 30 30 31 32 33 34 35 36 37 38 38 39 39 40 40
30 30 30 30 30 31 32 33 32 30 28 26 26 27 28 28 27 27 27 27 26 25 25 25 27 27 28 27 27 28 30 31 33 33 33 32 32 31 31 31 32 33 33 33 33 33 33 32 33 33 33 33 33 32 32 32 33 34 34 35 36 36 37 38 38 39 40 40 40
29 30 30 31 30 31 32 33 33 32 30 28 27 27 28 29 28 27 27 27 27 26 26 25 26 27 28 28 27 27 28 30 32 32 32 32 31 31 31 31 32 32 33 33 34 34 33 33 34 34 34 34 34 34 34 35 36 36 37 37 38 38 38 39 39 40 41 41 40
28 29 30 30 31 31 31 32 32 32 32 31 29 28 28 29 30 29 27 27 27 26 26 26 26 26 27 28 28 28 28 29 31 32 32 32 31 31 31 31 31 32 32 33 33 34 34 34 34 34 34 34 34 35 36 36 37 38 38 39 39 40 40 40 40 41 41 41 41
29 28 29 30 31 31 31 31 31 32 32 32 31 29 29 29 30 30 29 28 26 26 26 26 26 26 26 27 28 28 28 29 30 31 32 32 31 31 31 31 31 31 32 32 33 33 34 34 34 33 33 33 34 35 36 37 37 38 38 38 38 38 38 38 38 39 40 41 41
29 28 28 28 30 31 31 30 30 31 32 32 32 31 30 30 31 31 31 29 28 28 28 27 27 26 26 27 28 28 29 29 30 31 32 32 32 31 31 31 31 31 32 32 33 33 34 34 34 33 33 33 33 34 35 36 36 36 36 36 36 35 35 35 35 37 39 41 42
31 29 28 28 28 29 30 30 30 30 31 32 32 31 31 30 31 32 32 31 31 31 30 29 28 28 28 28 28 29 29 30 30 31 31 32 32 32 32 32 32 32 32 32 33 33 34 34 34 33 33 33 33 33 33 34 34 35 35 35 35 35 35 35 36 38 40 41 41
33 31 29 29 28 29 30 30 30 30 31 31 32 32 31 31 31 32 32 33 33 33 32 30 29 29 29 29 29 29 30 31 31 31 32 32 33 33 33 33 33 33 33 33 33 34 34 34 34 34 33 33 33 33 33 33 34 34 35 35 36 36 36 36 37 38 39 40 39
35 33 32 30 29 29 29 30 30 30 31 31 32 32 32 31 31 32 33 33 34 34 32 31 30 30 31 31 31 31 31 32 32 32 32 33 33 34 34 34 34 34 34 34 35 35 35 35 35 34 34 34 33 33 33 34 35 35 36 36 36 36 37 37 37 37 38 38 37
35 35 34 32 31 31 30 30 30 30 31 31 32 32 32 31 31 32 33 33 34 34 33 32 31 31 31 31 32 32 32 33 33 34 34 34 34 35 36 36 36 36 36 36 36 36 36 36 36 35 35 35 34 34 34 35 35 36 36 36 36 36 36 36 35 35 35 35 34
35 35 35 34 33 32 32 31 30 30 30 31 32 32 32 32 31 32 32 33 33 33 33 32 32 31 30 31 31 32 33 34 35 35 36 35 35 36 37 37 38 37 37 37 37 37 37 37 36 36 35 35 35 34 34 35 35 35 35 35 35 35 34 34 34 33 33 34 34
35 35 35 35 35 34 34 33 32 31 31 31 32 32 32 32 32 32 32 33 33 33 33 33 32 32 31 30 31 32 33 34 36 37 37 37 37 36 36 38 38 39 39 38 38 38 38 37 37 36 35 34 33 33 33 34 34 34 34 34 33 33 33 33 33 33 33 34 34
35 35 36 36 36 36 35 35 34 33 32 32 32 32 33 33 33 33 33 33 34 34 34 34 33 33 32 31 31 32 33 35 36 37 38 37 37 36 36 37 38 39 39 39 39 38 38 37 37 36 34 33 32 32 32 33 33 34 33 33 32 32 32 32 32 33 34 34 35
36 36 36 37 37 37 37 37 36 36 34 34 33 33 33 33 33 33 33 33 34 35 35 35 35 34 34 34 33 33 34 35 36 37 37 37 37 36 36 36 37 38 39 39 39 38 38 37 37 35 34 32 31 31 31 32 32 32 32 32 32 31 32 32 32 33 34 34 35
36 37 37 37 38 38 38 38 38 37 36 35 34 34 34 33 33 33 34 34 34 35 36 36 37 37 36 36 35 35 35 35 35 36 37 37 37 37 36 35 35 36 37 38 39 38 38 37 36 35 33 32 31 30 30 30 30 31 31 31 31 31 31 32 32 33 34 34 35
37 37 37 37 37 38 38 38 38 38 37 36 36 35 34 34 33 33 34 34 34 35 35 36 38 38 38 38 38 37 36 35 36 36 37 37 37 36 36 35 34 35 36 38 39 39 38 37 35 34 33 32 31 30 30 29 29 30 30 31 31 31 31 31 31 33 34 35 36
37 36 36 36 36 37 37 37 37 37 37 37 36 36 35 34 34 34 34 34 35 35 36 37 38 39 40 40 39 38 37 36 36 36 36 37 37 36 36 36 35 36 37 38 39 39 39 37 35 33 32 31 31 30 30 29 29 30 30 30 31 31 31 31 32 34 37 39 39
37 36 35 35 35 36 36 36 36 37 37 37 37 37 36 36 35 35 34 35 35 36 36 37 38 39 39 40 39 38 37 36 35 35 35 35 36 36 37 37 37 37 38 39 40 40 40 38 36 34 32 31 31 30 30 30 30 30 30 30 31 31 32 33 34 37 39 41 39
36 36 35 35 35 35 35 36 36 37 37 38 38 37 37 37 36 35 35 35 35 35 35 36 36 37 38 38 39 38 37 36 35 34 33 33 34 35 36 37 37 38 39 40 41 41 40 39 37 34 32 31 30 30 30 30 30 29 29 30 31 32 35 37 38 39 40 40 38
36 36 36 36 35 35 35 36 36 37 37 38 37 37 37 36 36 36 35 34 34 34 34 34 34 34 35 36 37 38 37 36 35 34 33 33 33 33 34 35 35 35 36 38 40 40 40 38 36 34 32 31 31 30 30 29 28 27 29 31 34 38 40 41 41 41 42 41 38
35 35 36 36 36 36 36 36 37 37 37 37 37 37 36 36 35 35 35 34 33 33 32 32 32 32 33 33 35 36 37 36 36 35 35 34 33 33 33 33 33 34 35 36 38 39 38 37 35 33 32 31 30 29 26 24 24 27 32 36 40 43 44 44 44 44 43 41 37
36 36 36 37 37 37 37 37 37 37 36 36 36 36 36 36 35 34 34 34 33 32 32 32 32 33 33 34 35 36 37 37 37 37 36 35 34 33 33 32 32 33 35 36 37 37 37 36 34 32 30 29 28 27 25 24 25 30 35 40 43 44 45 44 44 43 42 39 36
36 36 36 36 37 38 38 38 38 38 38 37 37 36 36 35 35 35 35 35 35 35 34 35 35 36 36 36 36 36 36 37 38 38 38 37 36 35 34 33 32 32 33 35 36 37 36 35 33 31 30 28 27 27 27 27 29 32 36 40 42 43 44 44 43 41 39 37 36
35 35 35 35 36 37 38 39 39 39 39 38 37 36 36 36 36 36 37 37 38 39 40 40 40 39 38 36 35 34 35 35 36 36 37 37 37 36 35 34 32 32 33 35 36 37 36 35 33 31 30 29 29 30 30 30 31 34 36 39 40 42 42 42 41 39 38 38 38
34 34 35 35 36 37 38 39 39 39 38 38 37 37 37 37 38 38 39 39 40 42 42 42 41 40 38 36 35 34 34 34 34 34 34 35 36 36 36 34 32 31 32 35 37 38 37 36 34 32 31 30 30 31 32 34 36 38 40 40 40 40 40 40 39 38 37 37 37
33 34 34 35 36 37 38 38 38 37 36 36 36 37 37 38 39 39 40 40 40 41 41 41 40 39 37 36 34 34 34 34 33 33 33 34 35 35 34 33 32 31 32 35 38 38 38 36 34 32 32 31 31 32 34 36 38 39 40 40 40 39 39 38 37 36 35 34 34
33 33 34 35 36 37 37 37 36 36 35 35 35 36 37 38 38 38 38 39 39 39 39 38 38 37 35 34 33 33 33 33 33 32 32 32 32 32 32 32 31 31 33 35 37 38 37 35 33 32 32 32 32 33 35 37 38 39 40 40 39 38 37 36 35 35 36 37 36
33 33 34 35 36 36 36 36 35 34 34 34 34 35 36 37 37 36 36 36 36 37 37 37 35 34 33 32 32 32 33 34 34 33 31 31 31 31 32 32 32 33 34 35 36 36 35 34 33 32 31 31 32 34 35 37 38 40 40 40 39 37 35 34 35 38 42 43 40
33 33 34 35 35 35 35 34 33 32 32 32 33 35 36 36 36 35 34 33 33 34 34 35 34 33 31 30 31 33 34 35 35 34 32 32 31 32 33 34 34 34 34 34 34 34 34 33 31 30 30 32 33 35 36 38 39 40 40 40 38 36 35 34 35 38 41 40 39
34 34 34 34 34 34 33 32 32 31 31 32 33 34 35 35 35 34 33 32 31 31 31 31 31 31 31 30 31 33 34 36 36 36 35 35 34 34 35 35 34 33 33 33 33 33 33 32 31 30 31 32 34 36 37 38 39 40 39 38 37 36 35 35 36 37 37 37 36
33 33 34 34 33 33 32 31 31 31 31 32 33 34 34 33 33 32 32 31 30 30 29 29 29 30 31 31 31 31 32 34 34 34 34 35 34 34 34 33 32 33 34 35 34 33 32 32 31 31 32 33 34 36 37 38 39 39 38 36 36 35 35 36 36 36 35 35 35
33 32 32 32 32 31 31 30 30 30 31 32 32 33 32 32 31 31 31 31 30 29 29 28 28 28 30 31 30 29 28 28 28 28 28 29 29 29 28 27 30 33 36 36 35 34 33 32 32 32 33 33 34 35 36 37 37 37 37 36 36 36 36 36 35 34 34 33 33
30 30 30 30 30 30 30 30 30 30 31 31 31 30 30 30 30 29 29 29 29 29 28 28 28 27 27 27 26 26 26 27 29 30 30 28 29 29 29 29 33 36 38 38 36 35 33 32 32 32 33 34 34 35 35 35 36 36 36 35 35 34 34 33 33 33 32 32 31
28 28 29 29 30 30 29 29 30 30 30 30 29 29 29 29 29 28 28 28 28 28 28 28 27 26 24 23 24 25 28 32 35 37 36 35 36 36 35 36 37 39 39 38 37 35 33 32 32 32 33 33 34 34 35 35 34 34 33 33 32 32 32 32 32 32 31 30 29
26 27 28 28 29 29 29 29 29 29 28 28 28 28 28 27 27 27 27 27 27 27 27 26 25 24 24 25 27 30 33 36 37 38 38 38 38 38 38 38 38 38 38 38 36 34 32 31 30 31 32 33 34 34 34 33 32 31 31 31 32 32 32 32 32 31 29 28 28
Wind_Direction
197 198 199 201 201 199 198 199 199 200 200 201 202 205 206 207 208 210 214 217 219 220 220 221 222 223 225 226 227 228 229 230 231 232 234 235 236 237 238 238 239 240 241 242 243 242 240 238 236 235 235 235 235 236 236 236 237 237 238 239 241 242 243 244 245 246 247 248 249
199 199 201 205 205 203 201 200 201 201 201 202 203 205 208 211 211 212 215 218 221 222 223 223 224 225 227 229 230 231 232 233 234 235 236 237 238 239 239 240 240 241 243 243 244 244 243 241 239 238 237 237 237 238 238 239 240 240 240 241 243 244 245 245 246 248 249 249 250
200 201 203 207 209 207 204 203 203 204 204 205 206 207 210 213 214 214 215 218 222 224 225 225 226 227 229 231 233 234 235 236 236 237 238 238 239 240 240 241 242 242 243 244 245 245 245 244 242 241 240 240 240 240 240 241 242 242 243 244 245 245 246 247 249 250 250 251 252
203 203 205 208 211 210 209 206 206 206 207 208 210 211 213 216 217 217 216 218 221 224 226 227 227 228 230 232 235 236 237 238 239 239 239 240 240 241 241 242 242 243 244 245 246 246 247 246 245 244 243 243 243 243 243 243 244 244 245 246 246 247 248 250 251 252 252 253 254
206 205 206 209 212 214 213 212 210 209 210 212 214 215 216 217 219 219 219 218 218 222 226 228 229 229 230 232 235 237 239 240 241 241 241 241 241 241 242 242 243 244 245 246 247 247 248 248 248 247 246 246 245 245 246 246 246 246 247 248 248 249 250 251 252 253 253 254 254
208 208 209 210 213 216 216 216 214 213 213 214 216 217 217 218 219 220 220 219 219 222 225 229 229 230 230 232 235 237 239 241 241 242 242 242 242 242 242 242 243 244 246 247 248 248 249 249 249 249 249 249 248 248 248 248 248 248 249 249 250 250 251 252 253 253 253 253 253
211 211 211 212 215 217 218 218 217 216 215 215 216 218 219 219 220 221 222 221 221 222 224 227 229 230 230 230 233 236 239 241 242 242 242 242 242 242 242 243 243 244 246 247 249 249 250 250 250 251 251 251 251 250 250 249 250 250 251 251 252 252 252 252 253 254 254 253 253
213 213 214 214 216 218 220 220 219 217 216 216 217 219 220 221 221 222 224 224 223 223 224 227 229 231 231 230 231 235 238 241 243 243 243 243 243 242 243 243 243 244 246 247 249 250 251 251 251 252 252 252 252 252 251 251 251 252 252 253 253 253 253 254 254 254 254 254 254
213 215 216 216 217 218 220 221 221 220 218 217 217 219 221 223 223 223 224 226 226 226 226 227 230 232 233 232 232 233 237 240 243 245 245 244 243 243 243 243 244 244 245 247 248 250 251 251 251 252 252 253 253 253 253 252 252 252 253 253 253 254 254 255 255 256 256 257 257
213 215 216 217 217 218 220 221 222 222 221 220 219 220 222 224 225 224 224 225 227 227 227 228 230 233 234 235 234 234 236 239 243 245 247 246 245 244 243 243 243 244 245 246 247 249 250 251 251 252 252 252 253 253 253 253 253 253 253 254 254 255 255 256 257 258 259 260 260
213 214 215 216 217 218 219 220 222 223 224 223 223 222 223 225 227 227 226 225 226 228 229 229 230 232 235 237 237 237 236 238 241 245 247 248 247 245 244 244 244 244 245 245 246 248 249 250 251 251 252 252 252 253 253 253 254 254 254 255 255 256 257 258 259 260 261 261 261
214 214 214 215 217 218 218 219 220 222 224 225 225 225 225 226 228 229 228 227 227 229 230 231 231 232 234 237 238 238 238 238 240 244 247 249 249 247 246 245 244 244 245 245 246 247 248 249 250 251 252 252 252 252 252 253 254 255 256 256 256 255 256 257 259 260 260 259 259
215 215 215 215 216 217 218 219 220 221 223 225 226 226 226 227 229 230 231 231 231 231 231 232 233 233 234 236 238 239 239 240 241 243 246 248 249 249 248 247 246 245 245 245 246 247 248 249 250 251 252 252 253 253 253 254 255 256 256 256 255 253 253 254 255 256 256 257 258
217 217 216 216 215 216 217 218 219 221 222 224 226 227 227 227 229 230 232 233 233 233 233 233 234 234 235 235 237 238 240 241 241 243 245 247 249 250 250 249 248 247 246 246 247 247 248 249 250 251 252 253 254 255 256 257 257 257 257 256 254 254 254 254 255 256 256 257 258
217 218 218 217 216 216 216 217 219 221 222 224 225 226 227 227 228 229 231 233 234 235 234 233 233 234 236 236 237 238 239 241 242 243 245 247 249 250 251 251 250 249 249 248 248 249 249 250 252 253 254 255 256 257 258 258 258 258 258 257 257 257 257 257 257 258 258 258 258
217 218 218 217 217 216 216 217 218 220 222 223 225 225 226 226 227 229 230 232 234 234 234 233 233 233 235 236 237 238 239 241 243 244 245 246 248 250 252 252 252 251 251 250 250 251 251 252 253 255 256 257 258 258 258 258 259 259 259 260 260 260 261 260 260 259 258 257 256
216 217 218 218 217 217 217 217 218 219 221 223 224 225 225 226 227 228 229 231 232 233 233 233 233 232 233 235 236 238 239 241 243 245 246 246 247 249 251 252 253 253 252 252 253 253 254 255 255 256 257 258 259 260 260 260 261 261 262 262 262 263 263 263 262 260 258 256 253
216 217 218 218 218 218 218 218 219 220 221 223 224 225 225 226 226 227 229 231 231 231 232 233 232 232 232 232 234 236 238 241 243 245 246 247 247 248 249 252 253 254 254 255 255 256 257 258 258 258 259 259 260 261 262 262 263 263 264 264 264 264 264 264 262 261 258 256 254
216 217 218 218 218 219 219 220 220 221 222 223 224 225 226 227 227 227 228 230 231 232 233 233 233 232 232 232 233 235 237 240 243 245 247 248 248 247 246 249 252 254 255 256 257 258 259 260 261 261 261 261 261 262 262 262 263 264 265 265 265 265 264 263 261 260 259 258 257
217 217 218 218 219 219 220 221 222 222 223 224 225 225 226 227 227 228 228 229 232 233 234 234 234 234 233 233 233 235 237 240 243 245 247 248 248 248 247 247 250 253 256 257 258 259 259 260 261 262 262 262 262 262 262 262 263 264 264 265 264 263 262 261 260 260 260 260 260
218 218 218 219 219 220 221 222 223 223 224 225 225 226 226 226 227 228 229 230 232 233 235 236 236 236 236 235 235 236 237 239 242 244 246 247 249 249 248 247 248 251 254 257 258 259 259 260 260 261 261 262 263 262 262 262 263 263 264 263 263 262 261 261 260 260 261 262 263
219 219 219 219 220 221 222 223 223 224 225 225 226 226 226 226 226 228 230 231 232 233 234 236 237 238 238 238 238 238 238 238 240 243 245 247 249 250 250 249 248 249 251 255 257 259 260 260 261 260 261 261 262 263 264 264 263 263 263 263 263 262 261 260 260 262 264 266 267
220 220 220 220 221 222 222 223 224 225 225 226 226 226 226 227 227 228 229 231 231 232 234 236 238 239 240 241 241 240 239 239 239 241 244 247 250 251 252 251 249 248 249 251 255 258 260 261 261 260 259 259 259 261 263 264 263 262 262 262 261 261 260 259 261 265 268 270 270
220 220 220 221 221 222 223 224 224 225 226 227 227 227 227 227 227 228 228 230 231 232 233 235 237 239 241 242 242 240 239 238 238 240 244 247 250 252 252 251 249 248 248 250 254 257 259 260 260 259 257 256 256 258 260 262 262 261 260 259 259 260 262 264 265 266 268 270 271
221 221 221 221 222 222 223 224 225 225 226 227 227 228 228 228 228 228 228 229 230 231 232 233 235 238 241 242 242 241 240 240 240 241 243 245 246 248 250 250 249 248 249 251 254 257 259 260 260 259 256 253 253 255 257 259 260 260 260 261 262 266 269 271 269 266 265 268 271
221 221 221 222 222 223 223 224 225 226 226 227 228 228 228 228 228 228 228 229 229 230 231 232 234 236 238 240 242 244 245 246 245 244 242 242 242 243 245 246 246 246 247 250 254 257 259 261 261 259 256 253 252 253 255 257 261 266 270 273 274 274 273 272 269 267 267 269 271
221 221 222 223 223 223 224 224 225 226 226 227 228 228 228 229 229 229 229 229 229 229 230 232 233 233 235 238 242 247 251 252 251 248 245 241 240 240 241 244 245 245 247 250 254 258 259 260 260 258 256 254 253 252 254 260 269 277 280 279 276 273 271 270 268 268 268 271 272
221 222 223 224 224 225 226 226 226 226 227 227 228 228 229 229 229 229 229 229 229 229 229 230 232 233 236 241 246 251 254 256 255 253 249 244 240 238 239 241 243 246 248 252 255 258 259 259 259 258 257 255 253 253 255 262 270 275 275 274 271 269 267 267 267 267 269 271 273
221 222 223 223 224 226 227 228 228 228 228 228 228 228 229 229 229 229 229 229 229 229 230 232 234 238 242 246 249 252 253 253 254 253 252 248 243 239 238 239 241 244 247 251 255 257 258 258 258 258 257 257 256 256 259 263 266 268 268 268 267 265 264 264 265 266 269 272 275
222 222 222 222 224 226 227 228 229 230 230 230 229 229 229 229 229 230 230 231 232 233 235 237 240 242 245 248 250 251 250 249 249 249 248 248 246 242 239 239 239 241 244 249 254 256 257 258 258 258 258 258 259 260 262 266 270 271 269 266 264 263 263 263 263 265 269 274 276
221 221 222 223 223 225 227 228 229 230 230 230 230 230 230 230 230 231 232 233 235 238 241 242 242 243 245 247 248 248 248 247 245 244 244 246 246 245 244 243 240 240 242 247 252 256 257 257 257 256 257 258 260 262 264 268 271 271 268 264 261 261 262 262 263 265 269 273 275
221 221 222 224 225 226 228 229 229 229 228 228 229 229 229 230 231 232 233 235 237 240 241 242 242 243 243 244 244 244 245 244 242 241 241 243 245 246 247 247 245 241 240 245 251 255 257 256 256 256 257 259 260 262 264 266 267 266 263 261 260 260 261 261 263 266 271 274 277
221 222 223 225 226 228 229 229 229 228 227 227 228 228 229 230 231 232 233 235 237 237 238 240 241 242 242 241 241 240 240 240 238 237 237 240 242 245 247 249 248 244 242 245 251 255 257 257 256 257 258 260 261 262 262 263 262 261 260 259 259 260 260 261 265 271 276 279 281
222 222 224 225 227 228 229 229 228 227 227 227 227 229 230 230 231 231 231 232 234 236 237 240 240 241 240 240 240 240 240 239 238 236 235 237 239 243 247 251 252 250 248 249 254 257 259 259 259 260 261 262 261 261 261 260 259 258 257 258 258 258 258 260 268 276 280 281 280
222 223 224 226 227 228 228 228 227 227 227 227 228 229 231 232 231 231 231 231 232 234 237 240 241 241 239 239 239 240 240 241 241 240 239 239 241 245 250 254 256 256 255 255 257 259 260 261 262 263 263 261 260 258 257 256 255 255 255 255 256 255 256 261 269 275 277 277 276
223 224 225 226 227 227 228 228 227 227 227 228 229 230 232 233 233 233 232 231 231 232 235 237 239 238 237 236 237 238 241 243 245 246 247 247 247 249 252 256 258 257 257 257 257 258 259 262 264 264 262 259 257 255 254 253 253 253 252 252 251 251 254 260 267 271 273 272 272
224 225 226 227 227 228 228 228 228 228 228 229 230 231 232 232 233 234 234 233 232 232 233 234 235 235 234 234 235 237 240 244 248 250 252 252 251 251 252 254 255 255 255 256 256 258 261 264 264 264 261 258 256 254 252 251 250 250 249 247 247 250 256 263 268 271 271 271 270
225 225 226 228 229 229 229 229 229 228 229 229 230 231 232 233 233 234 234 234 233 232 232 232 232 233 234 235 236 237 239 241 243 245 247 248 248 247 246 246 248 251 255 258 259 261 263 264 263 262 260 258 256 254 252 250 249 248 247 247 250 256 263 268 271 271 271 271 271
227 227 227 228 229 230 230 229 229 229 229 230 230 230 231 231 232 232 233 234 233 233 232 232 232 232 234 235 235 235 235 234 236 238 239 239 241 240 239 240 245 252 258 262 264 265 265 264 262 260 259 257 255 254 251 249 248 247 248 250 255 261 266 269 270 270 271 271 271
228 228 228 229 230 230 230 230 230 230 230 230 230 230 230 231 232 232 232 232 233 233 233 233 232 233 234 232 231 229 230 234 238 241 242 243 245 246 247 248 253 258 263 266 267 267 266 263 260 257 255 254 253 251 250 248 247 247 250 254 259 264 267 269 270 270 269 269 268
229 229 229 229 230 230 231 231 231 231 231 231 231 231 231 232 232 232 232 232 232 232 232 232 233 232 229 226 226 229 233 239 244 247 248 249 251 253 254 256 259 262 265 267 267 266 264 261 257 253 251 249 248 247 247 247 247 248 252 257 262 266 268 269 269 268 266 265 264
Height
1491 1492 1493 1494 1495 1497 1498 1500 1501 1502 1503 1504 1505 1506 1507 1508 1509 1510 1511 1511 1513 1514 1515 1516 1517 1518 1519 1520 1521 1522 1523 1524 1525 1525 1526 1527 1528 1529 1530 1531 1531 1532 1533 1534 1534 1535 1535 1536 1536 1537 1537 1538 1539 1539 1540 1540 1541 1541 1542 1542 1543 1543 1544 1544 1544 1545 1545 1546 1546
1490 1491 1492 1492 1494 1495 1497 1499 1500 1501 1502 1503 1504 1505 1506 1507 1508 1509 1510 1510 1511 1512 1514 1514 1516 1517 1518 1519 1519 1520 1521 1522 1523 1524 1525 1525 1526 1527 1528 1529 1530 1530 1531 1532 1533 1533 1534 1534 1534 1535 1535 1536 1537 1537 1538 1538 1539 1539 1540 1540 1541 1541 1541 1542 1542 1543 1543 1544 1544
1489 1490 1491 1491 1492 1494 1495 1497 1498 1499 1500 1501 1502 1504 1504 1505 1506 1508 1509 1509 1510 1511 1512 1513 1514 1515 1516 1517 1518 1519 1519 1520 1521 1522 1523 1524 1524 1525 1526 1527 1528 1529 1529 1530 1531 1531 1532 1532 1533 1533 1534 1534 1534 1535 1536 1536 1537 1537 1538 1538 1539 1539 1539 1539 1540 1540 1541 1541 1541
1487 1489 1489 1490 1491 1492 1494 1495 1497 1498 1499 1500 1501 1502 1503 1504 1505 1506 1507 1508 1509 1509 1510 1511 1512 1514 1514 1515 1516 1516 1517 1518 1519 1520 1521 1522 1523 1524 1524 1525 1526 1527 1528 1528 1529 1529 1530 1531 1531 1531 1531 1532 1532 1533 1534 1534 1535 1535 1536 1536 1536 1536 1537 1537 1538 1538 1538 1539 1539
1486 1487 1488 1489 1490 1491 1492 1494 1495 1496 1497 1498 1499 1500 1501 1502 1503 1504 1505 1506 1507 1508 1508 1509 1511 1512 1513 1514 1514 1514 1515 1516 1517 1518 1519 1519 1521 1522 1523 1524 1524 1525 1526 1526 1527 1528 1528 1529 1529 1529 1529 1530 1530 1531 1531 1532 1533 1533 1533 1534 1534 1534 1534 1534 1535 1535 1535 1536 1536
1484 1485 1486 1488 1489 1490 1491 1492 1494 1495 1496 1497 1498 1498 1499 1500 1501 1502 1503 1504 1505 1506 1507 1508 1509 1510 1511 1512 1512 1513 1513 1514 1514 1515 1516 1517 1519 1519 1520 1521 1522 1523 1524 1524 1525 1525 1526 1527 1527 1527 1527 1528 1528 1529 1529 1530 1530 1530 1531 1531 1531 1532 1532 1532 1532 1532 1533 1533 1533
1483 1484 1485 1486 1487 1488 1489 1490 1492 1493 1494 1495 1496 1496 1497 1498 1499 1500 1501 1502 1503 1504 1505 1506 1507 1508 1509 1510 1510 1510 1511 1512 1512 1513 1514 1515 1516 1517 1518 1519 1520 1521 1521 1522 1522 1523 1524 1524 1524 1525 1525 1525 1526 1526 1527 1527 1528 1528 1528 1528 1529 1529 1529 1529 1529 1529 1529 1530 1530
1481 1482 1483 1484 1486 1487 1488 1489 1490 1491 1492 1493 1494 1494 1495 1496 1497 1498 1499 1500 1501 1502 1503 1504 1504 1505 1507 1508 1508 1509 1509 1509 1510 1511 1512 1513 1514 1515 1516 1517 1518 1519 1519 1519 1520 1520 1521 1521 1522 1522 1522 1523 1523 1524 1524 1525 1525 1525 1525 1525 1525 1526 1526 1526 1526 1526 1526 1527 1527
1479 1480 1482 1483 1484 1485 1486 1487 1488 1489 1490 1491 1492 1493 1494 1494 1495 1497 1498 1499 1499 1500 1501 1502 1503 1504 1504 1505 1506 1507 1507 1508 1508 1509 1509 1511 1512 1513 1514 1514 1515 1516 1517 1517 1517 1518 1518 1519 1519 1519 1520 1520 1520 1521 1522 1522 1522 1522 1522 1522 1522 1522 1523 1523 1523 1523 1523 1524 1524
1478 1479 1480 1481 1482 1483 1484 1485 1486 1487 1488 1489 1490 1491 1492 1492 1494 1494 1496 1497 1498 1499 1499 1500 1501 1502 1502 1503 1504 1505 1505 1506 1506 1506 1507 1508 1509 1510 1511 1512 1513 1513 1514 1514 1515 1515 1515 1516 1516 1516 1517 1517 1518 1518 1519 1519 1519 1519 1519 1519 1519 1519 1520 1520 1520 1520 1521 1521 1521
1476 1477 1479 1479 1480 1482 1483 1484 1485 1485 1486 1487 1488 1489 1490 1490 1491 1492 1494 1495 1496 1497 1497 1498 1499 1500 1500 1501 1502 1503 1503 1504 1504 1504 1505 1505 1507 1508 1508 1509 1510 1510 1511 1512 1512 1512 1513 1513 1513 1513 1514 1514 1515 1515 1516 1515 1515 1515 1515 1516 1516 1517 1517 1517 1518 1518 1518 1518 1518
1475 1476 1477 1478 1479 1480 1481 1482 1483 1484 1484 1485 1486 1487 1488 1489 1489 1490 1491 1493 1494 1494 1495 1496 1497 1498 1498 1499 1499 1500 1501 1501 1502 1502 1502 1503 1504 1505 1506 1506 1507 1508 1508 1509 1509 1509 1510 1510 1510 1511 1511 1512 1512 1512 1512 1512 1512 1512 1512 1513 1513 1513 1513 1514 1514 1514 1514 1514 1513
1473 1474 1475 1477 1478 1478 1479 1480 1481 1482 1483 1483 1484 1485 1486 1487 1488 1488 1489 1490 1491 1492 1493 1494 1495 1495 1496 1497 1497 1498 1498 1499 1499 1500 1500 1500 1501 1502 1503 1504 1504 1505 1505 1506 1506 1507 1507 1507 1508 1508 1509 1509 1509 1509 1509 1509 1509 1509 1509 1509 1509 1509 1509 1509 1509 1509 1509 1509 1509
1471 1472 1474 1474 1476 1477 1477 1478 1479 1480 1480 1481 1482 1483 1484 1485 1485 1486 1487 1488 1489 1489 1491 1492 1492 1493 1494 1494 1495 1495 1496 1496 1497 1498 1498 1498 1499 1499 1500 1500 1501 1502 1503 1503 1503 1504 1504 1504 1505 1505 1506 1506 1506 1506 1507 1507 1507 1507 1506 1506 1506 1506 1506 1506 1506 1506 1506 1506 1506
1469 1470 1471 1472 1474 1474 1475 1476 1477 1477 1478 1479 1480 1481 1482 1483 1483 1484 1484 1485 1486 1487 1488 1489 1490 1490 1491 1492 1492 1493 1493 1494 1494 1495 1496 1496 1496 1497 1497 1498 1498 1499 1499 1500 1500 1501 1501 1502 1502 1502 1503 1503 1503 1504 1504 1504 1504 1504 1503 1503 1503 1503 1503 1504 1504 1504 1503 1503 1504
1466 1468 1469 1470 1471 1472 1473 1474 1474 1475 1476 1476 1477 1478 1479 1480 1481 1482 1482 1483 1484 1484 1486 1487 1487 1488 1489 1489 1490 1490 1491 1491 1492 1493 1493 1494 1494 1494 1495 1495 1496 1496 1497 1497 1497 1498 1498 1499 1499 1499 1500 1500 1500 1500 1500 1500 1500 1500 1500 1500 1500 1500 1500 1500 1501 1501 1501 1501 1501
1464 1465 1466 1467 1468 1469 1470 1471 1472 1472 1473 1474 1475 1476 1477 1478 1479 1479 1479 1480 1481 1482 1483 1484 1485 1486 1487 1487 1488 1488 1489 1489 1489 1490 1490 1491 1492 1492 1492 1492 1493 1493 1494 1494 1494 1495 1495 1495 1496 1496 1497 1497 1497 1497 1497 1497 1497 1497 1497 1497 1497 1497 1498 1498 1498 1498 1498 1498 1499
1461 1462 1463 1464 1465 1466 1467 1468 1469 1470 1471 1472 1473 1474 1474 1475 1476 1477 1477 1478 1478 1479 1480 1481 1482 1484 1484 1485 1485 1486 1486 1486 1487 1487 1488 1489 1489 1490 1490 1490 1490 1490 1491 1491 1491 1492 1492 1492 1493 1493 1494 1494 1494 1494 1494 1494 1494 1494 1494 1494 1494 1495 1495 1495 1495 1495 1495 1495 1496
1458 1459 1460 1461 1462 1463 1464 1465 1466 1467 1468 1469 1470 1471 1472 1472 1473 1474 1474 1475 1476 1477 1478 1479 1480 1481 1482 1482 1483 1483 1484 1484 1484 1484 1485 1486 1487 1488 1488 1488 1488 1488 1488 1488 1489 1489 1489 1489 1489 1490 1491 1491 1492 1492 1492 1492 1492 1491 1491 1492 1492 1492 1492 1492 1493 1493 1493 1493 1493
1455 1456 1457 1458 1459 1460 1461 1462 1464 1464 1466 1467 1468 1469 1469 1470 1471 1471 1472 1473 1474 1474 1475 1476 1477 1478 1479 1480 1480 1481 1481 1481 1482 1482 1483 1484 1484 1485 1485 1486 1485 1485 1485 1485 1486 1486 1486 1486 1487 1487 1488 1488 1489 1489 1489 1489 1489 1489 1489 1489 1489 1490 1490 1490 1490 1490 1490 1490 1490
1452 1453 1454 1455 1456 1458 1459 1459 1461 1462 1463 1464 1465 1466 1467 1468 1468 1469 1469 1470 1471 1472 1473 1474 1474 1475 1476 1477 1478 1478 1479 1479 1479 1480 1481 1481 1482 1482 1483 1483 1484 1483 1483 1483 1483 1483 1483 1484 1484 1484 1485 1485 1486 1486 1487 1487 1487 1488 1488 1488 1488 1488 1488 1489 1489 1488 1488 1488 1488
1449 1450 1452 1453 1454 1455 1456 1457 1459 1460 1461 1462 1463 1464 1464 1465 1466 1467 1467 1468 1469 1470 1470 1471 1471 1472 1473 1474 1475 1476 1476 1477 1477 1478 1478 1479 1479 1479 1480 1481 1481 1481 1480 1480 1480 1480 1480 1481 1481 1482 1483 1483 1484 1484 1484 1485 1486 1486 1486 1486 1487 1487 1487 1487 1487 1487 1486 1486 1485
1447 1448 1450 1451 1452 1453 1454 1455 1456 1458 1458 1459 1460 1461 1462 1463 1464 1464 1465 1466 1466 1467 1467 1468 1469 1469 1470 1471 1472 1473 1474 1475 1475 1475 1476 1476 1477 1477 1478 1478 1479 1479 1478 1478 1477 1477 1478 1478 1479 1480 1480 1481 1482 1482 1483 1483 1484 1484 1485 1485 1485 1486 1486 1486 1486 1485 1484 1483 1483
1444 1446 1448 1449 1450 1451 1452 1453 1454 1455 1456 1457 1457 1458 1459 1460 1461 1462 1463 1463 1464 1464 1465 1466 1466 1467 1467 1469 1469 1471 1472 1472 1473 1474 1474 1474 1475 1475 1475 1475 1475 1475 1475 1474 1474 1474 1475 1475 1476 1478 1479 1479 1480 1480 1481 1481 1482 1482 1483 1483 1484 1484 1484 1484 1484 1483 1482 1480 1480
1442 1444 1445 1446 1447 1449 1449 1450 1451 1452 1453 1454 1454 1456 1457 1458 1459 1459 1460 1461 1462 1462 1463 1464 1464 1465 1465 1466 1467 1468 1469 1470 1471 1472 1472 1473 1473 1473 1473 1472 1472 1472 1472 1472 1471 1471 1472 1473 1474 1476 1477 1478 1478 1478 1479 1479 1479 1480 1481 1481 1481 1482 1482 1483 1482 1481 1479 1478 1478
1440 1442 1443 1444 1445 1446 1447 1448 1448 1449 1450 1451 1452 1453 1454 1455 1456 1457 1458 1459 1459 1460 1461 1462 1462 1463 1464 1464 1464 1465 1466 1467 1468 1469 1470 1470 1471 1470 1470 1470 1470 1469 1469 1469 1469 1469 1470 1471 1472 1474 1475 1476 1476 1476 1476 1477 1477 1478 1478 1479 1479 1479 1480 1480 1479 1478 1476 1475 1475
1438 1439 1440 1441 1442 1443 1444 1444 1445 1446 1448 1449 1450 1451 1452 1453 1454 1455 1455 1456 1457 1458 1459 1460 1460 1461 1461 1462 1462 1463 1464 1464 1465 1466 1467 1468 1468 1468 1468 1467 1467 1467 1467 1466 1466 1467 1467 1469 1469 1471 1472 1474 1474 1474 1474 1474 1475 1476 1477 1477 1477 1477 1477 1476 1475 1474 1474 1474 1474
1435 1436 1437 1439 1439 1440 1441 1442 1443 1444 1445 1446 1447 1448 1449 1450 1451 1452 1453 1454 1454 1456 1457 1458 1458 1458 1459 1460 1460 1461 1461 1462 1462 1463 1464 1464 1465 1466 1466 1465 1465 1464 1464 1464 1464 1464 1465 1466 1467 1469 1470 1471 1471 1472 1472 1471 1472 1473 1474 1474 1473 1472 1472 1471 1471 1471 1472 1472 1472
1433 1434 1435 1436 1437 1438 1439 1439 1440 1441 1442 1443 1444 1446 1447 1448 1449 1449 1450 1450 1452 1453 1454 1454 1455 1456 1457 1457 1458 1459 1459 1459 1459 1459 1460 1461 1462 1463 1463 1463 1463 1462 1462 1461 1461 1462 1463 1464 1465 1467 1468 1469 1469 1469 1469 1469 1469 1469 1469 1469 1469 1468 1467 1467 1467 1468 1469 1470 1470
1430 1432 1433 1434 1434 1435 1436 1437 1437 1438 1439 1441 1442 1443 1444 1445 1445 1446 1447 1448 1449 1449 1450 1451 1452 1453 1454 1454 1455 1455 1456 1456 1457 1457 1457 1457 1458 1459 1459 1460 1461 1461 1460 1459 1459 1459 1460 1462 1463 1464 1466 1467 1467 1468 1468 1468 1468 1468 1468 1466 1465 1464 1464 1464 1464 1466 1467 1468 1468
1428 1429 1430 1431 1432 1432 1433 1434 1435 1436 1437 1438 1439 1440 1441 1442 1442 1443 1443 1444 1445 1446 1447 1449 1449 1450 1450 1451 1452 1453 1454 1454 1454 1454 1454 1454 1454 1455 1455 1457 1458 1459 1459 1457 1457 1457 1458 1459 1461 1463 1464 1465 1466 1466 1466 1466 1466 1466 1465 1464 1462 1461 1461 1462 1463 1464 1465 1466 1466
1426 1427 1428 1429 1429 1429 1430 1431 1432 1434 1435 1436 1437 1437 1438 1439 1439 1439 1440 1442 1443 1444 1445 1446 1447 1448 1449 1449 1450 1450 1451 1452 1452 1452 1452 1452 1452 1452 1453 1454 1455 1456 1456 1455 1454 1455 1456 1458 1459 1461 1462 1463 1464 1464 1464 1464 1463 1463 1462 1461 1460 1459 1459 1460 1461 1462 1463 1464 1464
1424 1424 1425 1426 1426 1427 1428 1429 1430 1431 1433 1434 1434 1435 1435 1436 1436 1438 1439 1440 1441 1442 1443 1444 1445 1446 1447 1447 1448 1449 1449 1449 1450 1450 1450 1450 1450 1450 1451 1452 1453 1454 1454 1453 1452 1453 1454 1455 1457 1459 1460 1461 1461 1461 1461 1461 1460 1460 1459 1458 1457 1457 1457 1458 1459 1460 1461 1461 1461
1421 1422 1423 1423 1424 1424 1425 1427 1428 1429 1430 1431 1432 1432 1433 1434 1434 1436 1437 1438 1439 1440 1441 1442 1443 1444 1445 1446 1447 1447 1447 1447 1447 1448 1449 1449 1449 1449 1449 1450 1450 1451 1451 1451 1450 1450 1451 1452 1454 1456 1458 1458 1459 1458 1458 1458 1458 1457 1456 1455 1455 1455 1455 1455 1456 1457 1457 1458 1458
1419 1419 1420 1420 1421 1422 1424 1425 1426 1428 1429 1429 1430 1430 1430 1431 1432 1433 1434 1436 1437 1438 1439 1440 1441 1442 1443 1444 1445 1445 1444 1444 1444 1445 1446 1447 1448 1448 1448 1447 1448 1448 1448 1448 1448 1448 1449 1449 1451 1453 1455 1455 1456 1456 1456 1456 1455 1454 1454 1453 1453 1453 1453 1453 1453 1453 1453 1454 1454
1416 1417 1417 1418 1419 1420 1422 1423 1424 1426 1427 1427 1427 1428 1428 1429 1430 1431 1433 1434 1436 1436 1437 1438 1439 1440 1441 1442 1442 1443 1442 1442 1443 1443 1444 1445 1446 1446 1445 1445 1445 1445 1445 1445 1445 1446 1447 1448 1449 1451 1452 1453 1453 1453 1453 1453 1452 1451 1451 1451 1451 1451 1451 1451 1451 1451 1451 1451 1451
1413 1414 1415 1416 1417 1419 1420 1421 1423 1424 1424 1425 1425 1425 1426 1427 1429 1429 1431 1432 1434 1434 1435 1436 1437 1437 1438 1439 1439 1440 1441 1441 1441 1442 1442 1443 1443 1444 1444 1444 1444 1443 1442 1442 1443 1444 1445 1446 1447 1448 1449 1450 1450 1450 1450 1449 1449 1449 1449 1449 1449 1449 1449 1449 1449 1449 1449 1448 1449
1411 1413 1414 1414 1416 1417 1418 1419 1420 1421 1422 1422 1423 1424 1425 1426 1427 1428 1429 1430 1431 1432 1433 1434 1434 1435 1435 1436 1437 1439 1439 1439 1440 1440 1440 1440 1441 1441 1442 1442 1440 1439 1438 1439 1440 1441 1442 1443 1445 1445 1446 1446 1446 1447 1447 1446 1446 1446 1447 1447 1447 1447 1447 1447 1446 1446 1446 1445 1445
1410 1411 1412 1413 1414 1415 1416 1417 1418 1419 1419 1420 1421 1422 1424 1424 1425 1426 1427 1428 1429 1429 1430 1431 1432 1433 1434 1435 1436 1437 1437 1436 1435 1435 1436 1437 1438 1438 1438 1438 1436 1435 1435 1436 1438 1439 1439 1440 1442 1442 1443 1443 1443 1443 1443 1444 1444 1444 1444 1445 1445 1445 1445 1444 1444 1444 1443 1443 1443
1409 1410 1411 1411 1412 1413 1414 1415 1415 1416 1417 1418 1419 1420 1422 1423 1424 1425 1426 1426 1427 1428 1428 1429 1430 1431 1433 1434 1434 1433 1432 1430 1429 1430 1432 1433 1433 1433 1433 1433 1433 1433 1434 1434 1435 1436 1437 1438 1439 1439 1440 1440 1440 1440 1440 1441 1441 1442 1443 1443 1444 1443 1443 1442 1441 1441 1440 1440 1440
1407 1408 1408 1409 1410 1410 1411 1412 1413 1414 1415 1416 1417 1418 1419 1421 1422 1423 1424 1424 1425 1426 1427 1428 1429 1429 1430 1429 1429 1428 1427 1426 1427 1428 1429 1429 1430 1430 1430 1431 1431 1431 1432 1432 1433 1434 1435 1436 1437 1437 1438 1438 1438 1438 1438 1439 1439 1440 1441 1441 1441 1441 1440 1439 1439 1439 1438 1438 1438